DELTA 1 DEB, 3812

Orbit data source: Space-Track

DELTA 1 DEB, 3812 is space debris in SSO originally from a launch on Sun, 15 Dec 1968 UTC launched from the Air Force Western Test Range (AFWTR). Debris objects in space refer to the collection of defunct objects orbiting the Earth. Examples of debris include non-operational satellites, rocket bodies, and fragments generated from explosions, collisions, or faulty payload assembly.

Loading next visibility...
Identifier
3812, 1968-114D
Orbit
SSO
Country
Flag of USUS
Related business
Manufacturer
Unknown
Mission
Spacecraft
Bus & Motor
Unknown
Mass
Unknown
Launch date (UTC)
1968-12-15 (57 years ago)
Launch vehicle
Unknown
Launch site
Air Force Western Test Range (AFWTR)
Object type
Payload
Rocket body
Debris
Shape & HBR
Unknown shape, 0.1 m
Radar Cross Section
Small (<0.1 m²)

Expand to show TLE details & history
Last TLE update: 3 days ago

TLE from 3 days ago
0 DELTA 1 DEB
1 03812U 68114D   25299.61731016 -.00000047  00000-0  28284-6 0  9998
2 03812 102.4559 312.5888 0071376 237.4870 245.0993 12.37780831568722
Epoch: 2025-10-26T14:48Z
TLE epoch observation values (Epoch: 2025-10-26T14:48:55.597Z)
Latitude
56.13738°
Longitude
-105.75192°
Altitude
1,549.207 km
Speed
7.087 km/s
True Right ascension
10h 06m 50s
True Declination
55° 59' 38"
Sunlit
Object was in daylight at epoch
Visualization orbit readout
Latitude
Unknown
Longitude
Unknown
Altitude
Unknown
Speed
Unknown
Apparent Right ascension
Unknown
Apparent Declination
Unknown
Sunlit
N/A
Visualization observer readout
Local Sidereal Time
07:21:07
Azimuth
Unknown
Elevation
Unknown
Doppler factor
Unknown
Orbital elements
Apogee altitude
1,569.958 km
Perigee altitude
1,457.301 km
Semi-major axis
7,891.767 km
Eccentricity
0.00714
Inclination
102.4559°
RAAN
312.5888°
Arg. of periapsis
237.487°
True anomaly
244.36022°
Mean anomaly
245.0993°
Eccentric anomaly
244.72948°
Mean motion
3.09586 °/min
Orbital period
116.28 mins
BSTAR
2.8284e-7
Loading maneuver chart data...
Computing Atmospheric mass density...
Loading historical data...
Loading historical data...
Loading historical data...
Loading historical data...
Loading historical data...
Loading historical data...
Loading historical data...

Documentation

Showing up to 5 results
|